Location: Guayaquil
(2.1667°S, 79.9000°W)
Time: 10:16:28
(UTC-05:00)

ISS - Visible Passes

Search period start: 19 July 2018 00:00
Search period end: 29 July 2018 00:00
Orbit: 402 x 408 km, 51.6° (Epoch: 19 July)

Date Brightness Start Highest point End Pass type
(mag) Time Alt. Az. Time Alt. Az. Time Alt. Az.
19 Jul -3.0 18:50:59 10° SW 18:54:11 56° NW 18:57:23 10° NNE visible
21 Jul -0.6 05:34:43 10° N 05:37:01 18° NE 05:39:19 10° E visible
21 Jul -0.4 18:44:30 10° W 18:46:20 14° NW 18:48:09 10° NNW visible
23 Jul -3.7 05:25:51 10° NNW 05:29:07 74° ENE 05:32:23 10° SE visible
24 Jul -1.5 04:36:55 25° NE 04:37:01 25° NE 04:39:47 10° ESE visible
25 Jul -1.8 05:22:58 16° S 05:22:58 16° S 05:23:55 10° S visible
